Location: Saint-Maurice-d�Ard�che
(44.5216°N, 4.4002°E)
Time: 18:39:17
(UTC+00:00)

Cosmos 2341 Rocket - Pass Details

Date: 30 March 2020
Orbit: 968 x 1004 km, 82.9° (Epoch: 02 June)

Event Time Altitude Azimuth Distance (km) Brightness Sun altitude
Rises 21:14:19 0° 350° (N) 3,723 7.8 -30.5°
Reaches altitude 10° 21:16:50 10° 350° (N) 2,774 7.0 -30.9°
Enters shadow 21:22:54 78° 307° (NW) 1,027 4.0 -31.6°
